Погода в Ташкиновой

Россия / Челябинская область     56°09′23″N   59°12′12″E
темп.,
°C
ветер,
м/с
пор.,
м/с
влажн.,
%
обл.,
%
осадки,
мм/ч
давл.,
гПа
погр.,
м
6 марта, сб
сб623:00−11зсз41096100 0.1 1004422
02:00−14з3898100 0.1 1006230
05:00−15зюз3797100 0.3 1008216
08:00−15зюз31096100 0.3 1009358
11:00−12зюз51192100 0.7 1009536
14:00−8з61089100 0.4 10091020
17:00−8з5991100 0.7 1009938
20:00−12з3995100 0.2 1010327
7 марта, вс
вс723:00−16з239994 0.3 101230
02:00−17юз119999 0.1 101220
05:00−19ююз1110099 0.1 101320
08:00−21ююз1110099 0.1 101220
11:00−13зюз118993 0.1 1012249
14:00−10зсз228196 0.0 1010653
17:00−11зсз228298 0.1 1008598
20:00−17зсз229669 0.0 100920
8 марта, пн
пн823:00−20зсз129951 0.0 101020
02:00−20зюз1210073 0.1 101020
05:00−21ююз1210086 0.1 101020
08:00−21ююв2310097 0.1 100858
11:00−14ююв479498 0.1 1006328
14:00−8ююз5990100 0.7 10041031
17:00−8юз51090100 1.3 1003886
20:00−10ююз399392 0.1 1004222
9 марта, вт
вт923:00−11ю339790 0.2 100557
02:00−11юв359662 0.0 1003110
05:00−7ююв5139481 0.9 999691
08:00−7ююз5149595 0.8 996752
11:00−8юз9158598 1.1 9971345
14:00−7юз101885100 0.3 9991716
17:00−7зюз91581100 0.6 10021346
20:00−10зюз61390100 0.1 1005814
10 марта, ср
ср1023:00−13зюз4119499 0.1 1008409
02:00−15юз379796 0.1 1009202
05:00−16юз239796 0.2 101067
08:00−17зюз2598100 0.1 1010143
11:00−13зюз2391100 0.2 1010420
14:00−11зюз2386100 0.2 1010583
17:00−11з2486100 0.3 1009573
20:00−14з2296100 0.1 101070